Regional Weather Roundup
Issued by NWS

Home | Current Version | Previous Version | Graphics & Text | Print | Product List | Glossary On
Versions: 1 2 3 4 5 6 7 8 9 10 11 12 13 14 15 16 17 18 19 20 21 22 23 24 25 26 27 28 29 30 31 32 33 34 35 36 37 38 39 40 41 42 43 44 45 46 47 48 49 50
000
ASUS43 KLMK 211510
RWRKY
KENTUCKY REGIONAL WEATHER ROUNDUP
NATIONAL WEATHER SERVICE LOUISVILLE KY
1100 AM EDT THU SEP 21 2017

NOTE "FAIR" INDICATES FEW OR NO CLOUDS BELOW 12,000 FEET
WITH NO SIGNIFICANT WEATHER AND/OR OBSTRUCTIONS TO VISIBILITY.

KYZ001>023-026-027-061>063-070>075-211600-
WESTERN AND SOUTH CENTRAL KENTUCKY

CITY           SKY/WX    TMP DP  RH WIND       PRES   REMARKS
PADUCAH        SUNNY     85  72  65 CALM      30.07R HX  91
HENDERSON      MOSUNNY   82  73  74 CALM      30.09R
OWENSBORO      MOSUNNY   83  73  72 S6        30.10S
HOPKINSVILLE   SUNNY     84  73  68 CALM      30.09R HX  90
BOWLING GREEN  SUNNY     81  74  79 CALM      30.11R
GLASGOW        SUNNY     81  71  70 CALM      30.12S
$$

KYZ024-025-028>034-038-045-046-053-211600-
NORTH CENTRAL KENTUCKY

CITY           SKY/WX    TMP DP  RH WIND       PRES   REMARKS
LOUISVILLE/SDF MOSUNNY   82  70  66 CALM      30.11R
LOUISVILLE/LOU SUNNY     81  73  76 CALM      30.11S
FORT KNOX      NOT AVBL
$$

KYZ035>037-039>044-047>052-055>060-089>105-211600-
NORTHEAST KENTUCKY

CITY           SKY/WX    TMP DP  RH WIND       PRES   REMARKS
LEXINGTON      SUNNY     81  68  64 CALM      30.14S
COVINGTON      SUNNY     81  73  76 CALM      30.12S
FRANKFORT      SUNNY     82  68  62 CALM      30.12S
$$

KYZ054-064>069-076>088-106>120-211600-
SOUTHEAST KENTUCKY

CITY           SKY/WX    TMP DP  RH WIND       PRES   REMARKS
JACKSON        SUNNY     75  67  76 CALM      30.16S
LONDON         SUNNY     77  68  73 CALM      30.15S
SOMERSET       SUNNY     75  68  78 CALM      30.15S
MIDDLESBORO    CLOUDY    66  66 100 CALM      30.17S
MONTICELLO     SUNNY     76  70  82 VRB6      30.15S
$$





USA.gov is the U.S. government's official web portal to all federal, state and local government web resources and services.